DW6725 Weather Reports


time (UTC)temp
C
wind
direction
speed
KPH
gust
KPH
rain 1hr
cm
rain 24hr
cm
rain mn
cm
humidity
%
barometer
mb
20260509174004 15 360 4.8 14.5 0.00 0.00 0.00 70 1008.6
20260509173003 15 360 3.2 9.7 0.00 0.00 0.00 71 1008.7
20260509172004 14 360 3.2 9.7 0.00 0.00 0.00 74 1008.8
20260509171004 13 360 3.2 12.9 0.00 0.00 0.00 74 1008.9
20260509170003 13 360 1.6 14.5 0.00 0.00 0.00 73 1009.0
20260509105004 3 0 0.0 0.0 0.00 0.10 0.00 84 1009.6
20260509104214 3 0 0.0 0.0 0.00 0.10 0.00 84 1009.5
20260509103214 3 0 0.0 0.0 0.00 0.10 0.00 84 1009.7
20260509102006 3 0 0.0 0.0 0.00 0.10 0.00 84 1009.6
20260509101005 3 0 0.0 0.0 0.00 0.10 0.00 84 1009.5
20260509100005 3 0 0.0 0.0 0.00 0.10 0.00 84 1009.3
20260509095005 3 0 0.0 0.0 0.00 0.10 0.00 84 1009.2
20260509094214 3 0 0.0 0.0 0.00 0.10 0.00 84 1009.2
20260509093004 3 0 0.0 0.0 0.00 0.10 0.00 84 1009.1
20260509092004 3 0 0.0 0.0 0.00 0.10 0.00 84 1009.3
20260509091004 3 0 0.0 0.0 0.00 0.10 0.00 84 1009.4
20260509090004 3 0 0.0 0.0 0.00 0.10 0.00 84 1009.5
20260509085004 3 0 0.0 0.0 0.00 0.10 0.00 84 1009.7
20260509084004 3 0 0.0 0.0 0.00 0.10 0.00 84 1009.7
20260509083004 3 0 0.0 1.6 0.00 0.10 0.00 84 1010.0
20260509082004 3 0 0.0 0.0 0.00 0.10 0.00 84 1009.9
20260509081005 3 0 0.0 0.0 0.00 0.20 0.00 84 1009.9
20260509080213 3 0 0.0 1.6 0.00 0.20 0.00 84 1010.0
20260509075004 3 0 0.0 0.0 0.00 0.20 0.00 84 1010.2
20260509074004 3 360 0.0 3.2 0.00 0.20 0.00 84 1010.2
20260509073003 3 360 0.0 3.2 0.00 0.20 0.00 84 1010.3
20260509072003 3 360 0.0 3.2 0.00 0.20 0.00 84 1010.1
20260509071003 3 0 0.0 0.0 0.00 0.20 0.00 84 1010.2
20260509070005 3 0 0.0 0.0 0.00 0.20 0.00 84 1010.1
20260509065003 3 0 0.0 0.0 0.00 0.20 0.00 84 1010.2
20260509064003 3 0 0.0 0.0 0.00 0.20 0.00 84 1010.4
20260509063003 3 0 0.0 0.0 0.00 0.20 0.00 84 1010.5
20260509062004 3 0 0.0 1.6 0.00 0.20 0.00 84 1010.5
20260509061003 3 360 1.6 6.4 0.00 0.23 0.00 84 1010.7
20260509060003 3 360 0.0 3.2 0.00 0.23 0.00 84 1010.8
20260509055003 3 360 1.6 6.4 0.00 0.23 0.00 84 1010.8
20260509054004 3 360 3.2 8.0 0.00 0.23 0.00 84 1010.8
20260509053003 3 360 3.2 8.0 0.00 0.23 0.00 84 1011.2
20260509052214 3 360 3.2 8.0 0.00 0.23 0.00 84 1011.1
20260509051003 3 360 3.2 6.4 0.00 0.23 0.00 84 1011.1
20260509050214 3 360 1.6 6.4 0.00 0.23 0.00 84 1011.3
20260509045003 3 360 1.6 4.8 0.00 0.23 0.00 84 1011.3
20260509044003 3 360 1.6 6.4 0.00 0.23 0.00 84 1011.5
20260509043214 3 360 1.6 8.0 0.00 0.23 0.00 84 1011.5
20260509042003 3 360 3.2 8.0 0.00 0.23 0.00 84 1011.5
20260509041003 3 360 4.8 6.4 0.00 0.23 0.00 84 1011.5
20260509040009 3 360 3.2 8.0 0.00 0.23 0.00 84 1011.4
20260509035005 3 360 4.8 9.7 0.00 0.23 0.23 84 1011.5
20260509034215 3 360 4.8 9.7 0.00 0.23 0.23 84 1011.5
20260509033004 3 360 4.8 9.7 0.00 0.23 0.23 84 1011.5
20260509032215 3 360 4.8 9.7 0.00 0.23 0.23 84 1011.5
20260509031213 3 360 3.2 8.0 0.00 0.23 0.23 84 1011.3
20260509030005 3 360 3.2 8.0 0.00 0.23 0.23 84 1011.5
20260509025004 3 360 4.8 9.7 0.00 0.23 0.23 84 1011.6
20260509024004 3 360 3.2 6.4 0.00 0.23 0.23 84 1011.6
20260509023217 3 360 3.2 6.4 0.00 0.23 0.23 84 1011.6
20260509022006 3 360 1.6 4.8 0.00 0.23 0.23 84 1011.8
20260509021215 3 360 1.6 4.8 0.00 0.23 0.23 84 1011.8
20260509020005 3 360 0.0 3.2 0.00 0.23 0.23 84 1011.8
20260509015004 3 0 0.0 0.0 0.00 0.23 0.23 84 1011.7
20260509014214 3 0 0.0 0.0 0.00 0.23 0.23 84 1011.6
20260509013004 3 0 0.0 0.0 0.00 0.23 0.23 84 1011.5
20260509012006 3 0 0.0 1.6 0.00 0.23 0.23 84 1011.5
20260509011004 3 360 0.0 3.2 0.00 0.23 0.23 84 1011.3
20260509010004 3 360 0.0 3.2 0.00 0.23 0.23 84 1011.1
20260509005003 3 360 0.0 3.2 0.00 0.23 0.23 84 1011.0
20260509004003 3 360 0.0 4.8 0.00 0.23 0.23 84 1010.9
20260509003003 3 360 1.6 3.2 0.00 0.23 0.23 84 1010.9
20260509002003 3 360 1.6 3.2 0.00 0.23 0.23 84 1010.8
20260509001003 3 360 1.6 3.2 0.00 0.23 0.23 84 1010.6
20260509000005 3 360 1.6 3.2 0.00 0.23 0.23 84 1010.7
20260508235003 3 360 0.0 3.2 0.00 0.23 0.23 84 1010.6
20260508234004 3 360 1.6 6.4 0.00 0.23 0.23 84 1010.4
20260508233003 3 360 1.6 4.8 0.00 0.23 0.23 84 1010.5
20260508232003 3 360 0.0 4.8 0.00 0.23 0.23 84 1010.6
20260508231003 3 360 1.6 4.8 0.00 0.23 0.23 84 1010.5
20260508230003 3 360 0.0 4.8 0.00 0.23 0.23 84 1010.5
20260508225213 3 360 3.2 9.7 0.00 0.23 0.23 84 1010.4
20260508224003 3 360 1.6 4.8 0.00 0.23 0.23 84 1010.6
20260508223003 3 360 4.8 16.1 0.00 0.23 0.23 84 1010.6
20260508222003 3 360 3.2 14.5 0.00 0.23 0.23 84 1010.7
20260508221003 3 360 3.2 9.7 0.00 0.23 0.23 84 1010.7
20260508220003 3 360 3.2 11.3 0.00 0.23 0.23 84 1010.9
20260508215004 3 360 3.2 12.9 0.00 0.23 0.23 84 1011.0
20260508214005 3 360 1.6 6.4 0.00 0.23 0.23 84 1010.9
20260508213004 3 360 1.6 11.3 0.00 0.23 0.23 84 1011.0
20260508212005 3 360 3.2 11.3 0.00 0.23 0.23 84 1011.1
20260508211215 3 360 4.8 12.9 0.00 0.23 0.23 84 1010.9
20260508210005 3 360 4.8 14.5 0.00 0.23 0.23 84 1011.0
20260508205004 3 360 6.4 17.7 0.00 0.23 0.23 84 1011.3
20260508204004 3 360 6.4 16.1 0.00 0.23 0.23 84 1011.1
20260508203005 3 360 4.8 20.9 0.00 0.23 0.23 84 1011.1
20260508202214 3 360 6.4 20.9 0.00 0.23 0.23 84 1011.1
20260508201004 3 360 11.3 24.1 0.00 0.23 0.23 84 1011.3
20260508200004 3 360 6.4 16.1 0.00 0.23 0.23 84 1011.4
20260508195004 3 360 8.0 17.7 0.00 0.23 0.23 84 1011.5
20260508194005 3 360 6.4 17.7 0.00 0.23 0.23 84 1011.7
20260508193005 3 360 6.4 20.9 0.00 0.23 0.23 84 1011.6
20260508192006 3 360 3.2 14.5 0.00 0.23 0.23 84 1011.6
20260508191003 3 360 3.2 17.7 0.00 0.23 0.23 84 1011.8
20260508190004 3 360 4.8 14.5 0.00 0.23 0.23 84 1011.7
20260508185003 3 360 3.2 14.5 0.00 0.23 0.23 84 1011.9
20260508184003 3 360 3.2 14.5 0.00 0.23 0.23 84 1011.9
20260508183005 3 360 4.8 14.5 0.00 0.23 0.23 84 1012.1
20260508182003 3 360 8.0 17.7 0.00 0.23 0.23 84 1012.2
20260508181004 3 360 6.4 17.7 0.00 0.23 0.23 84 1012.3
20260508180004 3 360 6.4 17.7 0.00 0.23 0.23 84 1012.1
20260508175003 3 360 6.4 16.1 0.00 0.23 0.23 84 1012.2